Location: ??????
(55.2000°N, 38.3000°E)
Time: 00:40:13
(UTC+00:00)

Cosmos 1891 Rocket - Pass Details

Date: 15 November 2025
Orbit: 932 x 1018 km, 82.9° (Epoch: 12 December)

Event Time Altitude Azimuth Distance (km) Brightness Sun altitude
Rises 02:27:03 0° 348° (NNW) 3,750 7.4 -21.4°
Reaches altitude 10° 02:29:37 10° 349° (NNW) 2,787 6.7 -21.0°
Maximum altitude 02:36:02 90° 30° (NNE) 995 4.5 -20.1°
Drops below altitude 10° 02:42:17 10° 171° (S) 2,710 7.0 -19.2°
Sets 02:44:45 0° 171° (S) 3,641 7.7 -18.9°
